[[{"header":{"parameterUnit":"m.s-1","parameterCategory":1,"la1":30.2991,"la2":30.254,"lo1":-89.0895,"lo2":-89.0444,"dy":0.0017,"dx":0.0017,"nx":28,"ny":28,"refTime":"2024-04-17T09:00:00:Z","depth":0,"parameterNumber":2,"parameterNumberName":"U-component_of_WINDS"},"data":[0,0,0,0,0,0,0,0,0,0,0,0,0,0,0,0,0,0,0,0,0,0,0,0,0,0,0,0,0,0,0,0,0,0,0,0,0,0,0,0,0,0,0,0,0,0,0,0,0,0,0,0,0,0,0,0,0,0,-0.9292,-0.9292,0,-0.9308,-0.9308,-0.9308,-0.9299,-0.9299,-0.9298,-0.9298,-0.9316,-0.9317,-0.9317,0,0,0,0,0,0,0,0,0,0,0,0,0,-0.9254,-0.9255,-0.9292,-0.9292,-0.9292,-0.9308,-0.9308,-0.9308,-0.9299,-0.9299,-0.9298,-0.9298,-0.9315,-0.9316,-0.9318,0,0,0,0,0,0,0,0,0,0,0,0,0,-0.9271,-0.9255,-0.9292,-0.9289,-0.9289,-0.9308,-0.9308,-0.9309,-0.9299,-0.9299,-0.9298,-0.9297,-0.9315,-0.9316,-0.9318,-0.934,0,0,-0.9322,-0.9322,0,0,0,0,0,0,0,0,-0.927,-0.9272,-0.9289,-0.929,-0.929,-0.9301,-0.9302,-0.9319,-0.93,-0.9296,-0.9298,-0.9297,-0.9311,-0.9313,-0.9318,-0.9341,-0.9342,-0.9322,-0.9323,-0.9323,-0.9324,0,0,0,0,0,0,0,-0.9269,-0.9271,-0.9298,-0.929,-0.929,-0.9288,-0.929,-0.9305,-0.9307,-0.9296,-0.9295,-0.9297,-0.9311,-0.9316,-0.9318,-0.9342,-0.9322,-0.9323,-0.9324,-0.9325,-0.9385,-0.9386,0,0,0,0,0,0,-0.9267,-0.927,-0.9298,-0.9299,-0.9278,-0.9289,-0.9291,-0.9298,-0.9307,-0.9308,-0.9298,-0.9297,-0.9314,-0.9316,-0.9319,-0.9346,-0.9323,-0.9325,-0.9325,-0.9384,-0.9385,-0.9386,0,0,0,0,0,0,-0.9267,-0.927,-0.9297,-0.9284,-0.9288,-0.9291,-0.9298,-0.9299,-0.9304,-0.9308,-0.9309,-0.9302,-0.9314,-0.9317,-0.9335,-0.9346,-0.9325,-0.9327,-0.9383,-0.9384,-0.9385,-0.94,0,0,0,0,0,0,-0.9265,-0.927,-0.9278,-0.9285,-0.9288,-0.9312,-0.9299,-0.9299,-0.9306,-0.9305,-0.9313,-0.9314,-0.9314,-0.9333,-0.9336,-0.9348,-0.9328,-0.9382,-0.9384,-0.9385,-0.9398,-0.9401,-0.9404,0,0,0,0,0,-0.9264,-0.9281,-0.9278,-0.9281,-0.9298,-0.9313,-0.9315,-0.9315,-0.9307,-0.9315,-0.9318,-0.9313,-0.9344,-0.9335,-0.9338,-0.935,-0.9381,-0.9383,-0.9385,-0.9397,-0.9401,-0.9404,0,0,0,0,0,0,-0.9276,-0.9282,-0.9279,-0.9298,-0.9305,-0.9311,-0.9322,-0.9318,-0.9328,-0.9326,-0.9326,-0.9328,-0.9346,-0.935,-0.9339,-0.9373,-0.9362,-0.9364,-0.937,-0.9373,-0.9376,-0.9375,-0.9329,0,0,0,0,0,-0.928,-0.9291,-0.9296,-0.9313,-0.9317,-0.9319,-0.9325,-0.9324,-0.9332,-0.9335,-0.9339,-0.9347,-0.9358,-0.9366,-0.9377,-0.9399,-0.9401,-0.9409,-0.9412,-0.9414,-0.9416,-0.9429,-0.9433,-0.9392,-0.9392,-0.9392,0,0,-0.929,-0.9295,-0.9302,-0.9316,-0.9321,-0.9333,-0.9321,-0.9334,-0.9344,-0.9337,-0.9354,-0.9358,-0.9366,-0.9387,-0.9396,-0.939,-0.9428,-0.9416,-0.9418,-0.9419,-0.9431,-0.9435,-0.9438,-0.9393,-0.9393,-0.9393,0,0,-0.9315,-0.9319,-0.9334,-0.934,-0.9348,-0.9349,-0.9353,-0.936,-0.9362,-0.9379,-0.9374,-0.9386,-0.9405,-0.9412,-0.9418,-0.9445,-0.9441,-0.9449,-0.9463,-0.9476,-0.9479,-0.9482,-0.9492,-0.9496,-0.9451,-0.9451,-0.9451,0,-0.9326,-0.9344,-0.9342,-0.9356,-0.9362,-0.9356,-0.9371,-0.9377,-0.9389,-0.9393,-0.9387,-0.9412,-0.9418,-0.944,-0.9446,-0.9451,-0.9456,-0.9448,-0.9479,-0.9481,-0.9484,-0.9494,-0.9498,-0.9452,-0.9452,-0.9452,-0.9452,0,-0.9358,-0.937,-0.9381,-0.9392,-0.9399,-0.9414,-0.9415,-0.9423,-0.9422,-0.9424,-0.9442,-0.9448,-0.9461,-0.9466,-0.9464,-0.9488,-0.9485,-0.9479,-0.9467,-0.9489,-0.9498,-0.9502,-0.9453,-0.9453,-0.9453,-0.9453,0,0,-0.939,-0.94,-0.9404,-0.9409,-0.9418,-0.9427,-0.9442,-0.9454,-0.9461,-0.9469,-0.9482,-0.9499,-0.9493,-0.95,-0.95,-0.951,-0.9533,-0.9503,-0.9503,-0.9509,-0.956,-0.9564,-0.9569,-0.953,-0.9531,-0.9531,-0.9559,0,-0.9415,-0.944,-0.9439,-0.9462,-0.9474,-0.9469,-0.9481,-0.9489,-0.9491,-0.9502,-0.9505,-0.9517,-0.9509,-0.9513,-0.9524,-0.9528,-0.9543,-0.9526,-0.9542,-0.9543,-0.954,-0.9573,-0.9578,-0.9604,-0.9563,-0.9563,-0.9564,0,-0.9448,-0.9457,-0.9481,-0.9488,-0.9493,-0.9505,-0.9516,-0.9526,-0.9534,-0.9536,-0.9543,-0.9541,-0.9557,-0.9545,-0.9567,-0.9555,-0.9562,-0.9565,-0.9566,-0.9568,-0.9555,-0.9576,-0.9612,-0.9616,-0.9569,-0.9569,-0.9568,0,-0.9469,-0.9487,-0.9504,-0.9509,-0.9518,-0.9526,-0.953,-0.9538,-0.9545,-0.9555,-0.956,-0.9572,-0.9578,-0.9588,-0.9589,-0.9581,-0.9611,-0.96,-0.9613,-0.9613,-0.962,-0.962,-0.9658,-0.9624,-0.9624,-0.9624,-0.9624,0,-0.9497,-0.9513,-0.9514,-0.9525,-0.9542,-0.9541,-0.9558,-0.9562,-0.9569,-0.9581,-0.9577,-0.9588,-0.9589,-0.9601,-0.9602,-0.962,-0.9623,-0.9625,-0.9625,-0.9626,-0.9626,-0.963,-0.9629,-0.9625,-0.9625,-0.9624,-0.9624,0,-0.9524,-0.9526,-0.9544,-0.9551,-0.9553,-0.9566,-0.9572,-0.9583,-0.9585,-0.96,-0.9603,-0.9607,-0.9621,-0.9623,-0.9639,-0.964,-0.9662,-0.966,-0.9659,-0.9659,-0.9673,-0.9672,-0.9716,-0.9722,-0.9684,-0.9684,-0.9684,0,-0.9542,-0.9554,-0.9562,-0.957,-0.9574,-0.9586,-0.9594,-0.9594,-0.9602,-0.9612,-0.9622,-0.9635,-0.9645,-0.9668,-0.9672,-0.9685,-0.9684,-0.9698,-0.9686,-0.9686,-0.9684,-0.9684,-0.9685,-0.9701,-0.9701,-0.9702,-0.9702,0,-0.9575,-0.9575,-0.9586,-0.9597,-0.9605,-0.9614,-0.9622,-0.9629,-0.963,-0.964,-0.9653,-0.9661,-0.9678,-0.9691,-0.9704,-0.9709,-0.9706,-0.9706,-0.971,-0.971,-0.9709,-0.971,-0.9666,-0.9705,-0.9705,-0.9704,-0.9704,-0.9704,-0.9598,-0.9608,-0.9616,-0.9628,-0.9634,-0.9642,-0.9652,-0.9656,-0.9667,-0.968,-0.968,-0.9695,-0.9704,-0.972,-0.9726,-0.9739,-0.9734,-0.974,-0.9741,-0.9743,-0.9744,-0.9707,-0.9741,-0.9741,-0.9741,-0.9741,-0.9741,0,-0.9631,-0.9635,-0.9646,-0.9658,-0.9668,-0.9663,-0.9673,-0.9681,-0.9694,-0.9702,-0.9713,-0.9729,-0.9742,-0.9748,-0.9761,-0.977,-0.9769,-0.9774,-0.9773,-0.9774,-0.9747,-0.9743,-0.9774,-0.9774,-0.9774,-0.9774,-0.9774,-0.9774,-0.9649,-0.9666,-0.9667,-0.9688,-0.9693,-0.9707,-0.9713,-0.972,-0.9727,-0.9745,-0.9755,-0.9759,-0.9767,-0.978,-0.9792,-0.9794,-0.9799,-0.9804,-0.9805,-0.978,-0.9776,-0.9773,-0.9769,-0.9805,-0.9805,-0.9831,-0.9832,-0.9832]},{"header":{"parameterUnit":"m.s-1","parameterCategory":1,"la1":30.2991,"la2":30.254,"lo1":-89.0895,"lo2":-89.0444,"dy":0.0017,"dx":0.0017,"nx":28,"ny":28,"refTime":"2024-04-17T09:00:00:Z","depth":0,"parameterNumber":3,"parameterNumberName":"V-component_of_WINDS"},"data":[0,0,0,0,0,0,0,0,0,0,0,0,0,0,0,0,0,0,0,0,0,0,0,0,0,0,0,0,0,0,0,0,0,0,0,0,0,0,0,0,0,0,0,0,0,0,0,0,0,0,0,0,0,0,0,0,0,0,4.0562,4.0562,0,4.0572,4.0572,4.0572,4.0522,4.0521,4.0519,4.0518,4.0527,4.0528,4.053,0,0,0,0,0,0,0,0,0,0,0,0,0,4.0498,4.0499,4.0562,4.0562,4.0562,4.0572,4.0572,4.0572,4.0523,4.0521,4.0519,4.0517,4.0526,4.0528,4.053,0,0,0,0,0,0,0,0,0,0,0,0,0,4.0519,4.05,4.0562,4.0539,4.0537,4.0572,4.0572,4.0572,4.0523,4.0521,4.0519,4.0517,4.0525,4.0528,4.053,4.0588,0,0,4.0537,4.0538,0,0,0,0,0,0,0,0,4.0518,4.0521,4.0542,4.054,4.0538,4.0544,4.0553,4.0577,4.0523,4.0528,4.0518,4.0516,4.0534,4.0535,4.0542,4.0588,4.0588,4.0537,4.0539,4.054,4.054,0,0,0,0,0,0,0,4.0516,4.052,4.0566,4.0542,4.054,4.0527,4.0528,4.0557,4.0543,4.0527,4.0524,4.0526,4.0532,4.054,4.0542,4.0588,4.0537,4.0539,4.0541,4.0542,4.0682,4.0684,0,0,0,0,0,0,4.0518,4.0519,4.0565,4.0566,4.0522,4.053,4.0531,4.0544,4.0542,4.054,4.0528,4.0524,4.0537,4.0539,4.0542,4.0609,4.054,4.0542,4.0543,4.068,4.0683,4.0685,0,0,0,0,0,0,4.0517,4.0523,4.0565,4.0542,4.0546,4.0533,4.0549,4.0545,4.0553,4.0543,4.054,4.0538,4.0535,4.0539,4.0577,4.0609,4.0543,4.0545,4.0677,4.0681,4.0684,4.0744,0,0,0,0,0,0,4.0515,4.0523,4.0545,4.0543,4.0548,4.06,4.0551,4.0547,4.0557,4.0552,4.0551,4.0549,4.0534,4.0573,4.0579,4.0611,4.0547,4.0674,4.0679,4.0683,4.0739,4.0749,4.0758,0,0,0,0,0,4.0513,4.0561,4.0546,4.0552,4.0575,4.0602,4.0605,4.0587,4.056,4.0582,4.0575,4.0549,4.0605,4.0578,4.0584,4.0617,4.0672,4.0678,4.0683,4.0735,4.0747,4.0758,0,0,0,0,0,0,4.0566,4.056,4.0544,4.0592,4.0598,4.0594,4.0621,4.06,4.0614,4.0608,4.0584,4.0584,4.0627,4.0625,4.0596,4.0672,4.0634,4.064,4.0672,4.0683,4.0692,4.0691,4.0549,0,0,0,0,0,4.0583,4.0606,4.06,4.0643,4.0647,4.0634,4.0645,4.063,4.0635,4.0637,4.0634,4.0639,4.0658,4.067,4.0687,4.0739,4.0738,4.0765,4.0774,4.0782,4.0788,4.0815,4.0827,4.0703,4.0702,4.0702,0,0,4.0619,4.0619,4.0635,4.0654,4.0657,4.0681,4.0636,4.0663,4.0681,4.0641,4.0677,4.0675,4.0679,4.0725,4.0745,4.0725,4.0822,4.0788,4.0795,4.0796,4.0822,4.0834,4.0844,4.0706,4.0705,4.0705,0,0,4.0696,4.0699,4.0735,4.074,4.0745,4.0736,4.0745,4.0744,4.0741,4.0777,4.0748,4.0768,4.0801,4.0805,4.0812,4.0892,4.0868,4.0898,4.0946,4.0974,4.0983,4.0992,4.1021,4.1031,4.0904,4.0904,4.0904,0,4.074,4.0776,4.0756,4.0786,4.0795,4.0762,4.0798,4.0803,4.0813,4.082,4.0798,4.0839,4.0839,4.0886,4.0905,4.0912,4.0921,4.0898,4.0984,4.0992,4.1,4.1027,4.1038,4.0908,4.0907,4.0907,4.0907,0,4.0829,4.0855,4.0883,4.0895,4.0907,4.094,4.0926,4.094,4.0925,4.0918,4.0955,4.0955,4.0971,4.0981,4.0966,4.1025,4.1013,4.0988,4.0948,4.1016,4.104,4.1051,4.0913,4.0911,4.091,4.091,0,0,4.0939,4.0941,4.0952,4.0957,4.0961,4.098,4.1011,4.1028,4.1041,4.1049,4.1075,4.1103,4.108,4.1088,4.1073,4.1097,4.1161,4.1069,4.1068,4.1086,4.1226,4.1245,4.1257,4.1145,4.1147,4.1149,4.1225,0,4.1015,4.107,4.1054,4.1108,4.1131,4.11,4.1127,4.1132,4.1127,4.1145,4.1139,4.1159,4.1127,4.1132,4.1154,4.1148,4.1188,4.1142,4.1168,4.1169,4.1168,4.127,4.129,4.1362,4.1235,4.1237,4.1238,0,4.1111,4.1124,4.1181,4.1182,4.1191,4.1216,4.123,4.1248,4.1253,4.1247,4.1257,4.1237,4.1267,4.1228,4.127,4.1239,4.1248,4.1247,4.125,4.1251,4.1208,4.1274,4.1385,4.1396,4.1253,4.1252,4.1251,0,4.1186,4.1218,4.1256,4.1261,4.1263,4.1281,4.1283,4.1286,4.1297,4.1309,4.1316,4.1331,4.1339,4.1352,4.1336,4.1309,4.138,4.134,4.1376,4.1376,4.1392,4.1391,4.1506,4.1399,4.1399,4.1398,4.1398,0,4.1272,4.1308,4.129,4.1313,4.1353,4.1334,4.1373,4.1371,4.1374,4.1396,4.137,4.1391,4.137,4.139,4.1378,4.1414,4.1418,4.1414,4.141,4.1416,4.1417,4.1422,4.1416,4.1401,4.1401,4.14,4.1399,0,4.1362,4.1351,4.1391,4.139,4.139,4.1419,4.1418,4.1439,4.1432,4.1461,4.1466,4.1455,4.1477,4.1463,4.1484,4.1476,4.1524,4.1513,4.1522,4.1519,4.1556,4.1553,4.1678,4.1693,4.1577,4.1578,4.1579,0,4.1418,4.1445,4.1447,4.146,4.1464,4.1486,4.1497,4.1479,4.1492,4.1501,4.1521,4.154,4.1555,4.159,4.1584,4.16,4.159,4.1633,4.1592,4.1597,4.159,4.1589,4.1591,4.1641,4.1642,4.1643,4.1644,0,4.1518,4.1511,4.1529,4.1546,4.156,4.1572,4.1581,4.1594,4.1576,4.1592,4.1614,4.1625,4.1648,4.1667,4.1681,4.1681,4.166,4.1657,4.1666,4.1672,4.1676,4.1675,4.1544,4.1654,4.1653,4.1652,4.1652,4.1651,4.1592,4.1615,4.162,4.1641,4.1647,4.1656,4.1677,4.1673,4.1691,4.1708,4.1696,4.1723,4.1727,4.1743,4.1747,4.1767,4.1749,4.1763,4.1766,4.177,4.1775,4.1674,4.1769,4.1769,4.1769,4.1768,4.1768,0,4.1691,4.1693,4.1712,4.1727,4.1743,4.1723,4.1732,4.1747,4.1771,4.1777,4.1792,4.1818,4.1836,4.1832,4.1849,4.1865,4.1856,4.187,4.1869,4.1869,4.1789,4.178,4.1878,4.1878,4.1878,4.1878,4.1878,4.1878,4.1744,4.1782,4.1776,4.1816,4.1817,4.1843,4.1851,4.1859,4.1865,4.1894,4.191,4.1907,4.1909,4.1926,4.1943,4.1941,4.1948,4.1966,4.1961,4.1886,4.1875,4.1865,4.1855,4.1968,4.1968,4.2039,4.204,4.204]}]]